Location: Unspecified
(35.7250°N, 0.0000°E)
Time: 13:11:14
(UTC+00:00)

Explorer 7 - Pass Details

Date: 19 August 2020
Orbit: 485 x 679 km, 50.3° (Epoch: 21 September)

Event Time Altitude Azimuth Distance (km) Brightness Sun altitude
Rises 21:05:13 0° 318° (NW) 2,627 11.6 -26.1°
Reaches altitude 10° 21:07:53 10° 335° (NNW) 1,712 10.2 -26.5°
Enters shadow 21:10:10 20° 10° (N) 1,206 8.8 -26.8°
